Regional Weather Roundup
Issued by NWS

Home | Current Version | Previous Version | Text Only | Print | Product List | Glossary On
Versions: 1 2 3 4 5 6 7 8 9 10 11 12 13 14 15 16 17 18 19 20 21 22 23 24 25 26 27 28 29 30 31 32 33 34 35 36 37 38 39 40 41 42 43 44 45 46 47 48 49 50
000
ASUS43 KTOP 031559
RWRKS

WEATHER ROUNDUP FOR KANSAS
NATIONAL WEATHER SERVICE GOODLAND KS
1000 AM CST SAT DEC 03 2016

NOTE:  "FAIR" INDICATES FEW OR NO CLOUDS BELOW 12,000 FEET WITH NO
SIGNIFICANT WEATHER AND/OR OBSTRUCTIONS TO VISIBILITY.

KSZ001>006-013>018-027>032-041>047-031700-
NORTHWEST KANSAS

CITY           SKY/WX    TMP DP  RH WIND       PRES   REMARKS
GOODLAND       CLOUDY    30  22  72 SW7       30.11S
HAYS           LGT SNOW  32  31  96 NE3       30.22S VSB 1
HILL CITY      CLOUDY    31  29  92 CALM      30.20F FOG
RUSSELL        LGT SNOW  32  30  92 N6        30.20F FOG
$$

KSZ061>065-074>080-084>089-031700-
SOUTHWEST KANSAS

CITY           SKY/WX    TMP DP  RH WIND       PRES   REMARKS
DODGE CITY     LGT RAIN  33  32  96 N3        30.18S VSB 1
ELKHART          N/A     32  26  78 SE5         N/A
GARDEN CITY    CLOUDY    33  32  96 NE3       30.15F FOG
GREAT BEND     MIX PCPN  36  30  79 E5        30.20R
LIBERAL        CLOUDY    34  28  80 CALM      30.17S
$$

KSZ066>073-081>083-090>101-031700-
SOUTHEAST KANSAS

CITY           SKY/WX    TMP DP  RH WIND       PRES   REMARKS
CHANUTE        CLOUDY    46  31  55 SE8       30.24R
COFFEYVILLE    CLOUDY    50  35  56 SE6       30.24R
HUTCHINSON     LGT RAIN  38  33  82 E7        30.21F
MEDICINE LODGE   N/A     38  34  85 CALM      30.21R
NEWTON         CLOUDY    38  31  76 E6        30.22R
PARSONS        CLOUDY    49  33  54 SE8       30.25R
WICHITA INTL   LGT RAIN  42  32  67 E3        30.22R
WICHITA JABRA  CLOUDY    40  31  70 E3        30.22R
WINFIELD       CLOUDY    44  29  55 E6        30.23R
$$

KSZ007>012-019>026-033>040-048>060-102>105-031700-
NORTHEAST KANSAS

CITY           SKY/WX    TMP DP  RH WIND       PRES   REMARKS
CONCORDIA      CLOUDY    33  30  88 E6        30.26R
EMPORIA        CLOUDY    41  29  62 E8        30.24R
LAWRENCE       CLOUDY    38  32  79 E9        30.29S
MANHATTAN      CLOUDY    36  29  75 NE6       30.26S
OLATHE IND     CLOUDY    41  29  62 E10       30.28S
OLATHE EXE     CLOUDY    41  30  65 E9        30.28S
SALINA         CLOUDY    38  30  73 E8        30.23F
TOPEKA BILLARD CLOUDY    38  31  76 E7        30.28S
TOPEKA FORBES  CLOUDY    42  31  64 E9        30.27S
$$




USA.gov is the U.S. government's official web portal to all federal, state and local government web resources and services.